Weather History for Hailey, ID

Change the Weather History Date:

Friday, May 11, 2012

  Actual Average Record
Temperature  
Mean Temperature 46 °F -  
Max Temperature 60 °F 61 °F 78 °F (2001)
Min Temperature 33 °F 35 °F 26 °F (2000)
Degree Days  
Heating Degree Days 18    
Moisture  
Dew Point 23 °F    
Average Humidity 45    
Maximum Humidity 66    
Minimum Humidity 25    
Precipitation  
Precipitation 0.00 in - - ()
Sea Level Pressure  
Sea Level Pressure 30.12 in    
Wind  
Wind Speed 7 mph (NW)    
Max Wind Speed 12 mph    
Max Gust Speed -    
Visibility 10 miles    
Events      
Averages and records for this station are not official NWS values.
T = Trace of Precipitation, MM = Missing Value Source: NWS Daily Summary

Daily Weather History Graph

Daily Weather History Graph

Search for Another Location

Airport:

Trip Planner

Search our weather history database for the weather conditions in past years. The results will help you decide how hot, cold, wet, or windy it might be!

Date:

Astronomy

May. 11, 2012 Rise Set
Actual Time 6:16 AM MDT 8:51 PM MDT
Civil Twilight 5:43 AM MDT 9:24 PM MDT
Nautical Twilight 5:02 AM MDT 10:05 PM MDT
Astronomical Twilight 4:16 AM MDT 10:51 PM MDT
Moon 1:32 AM MDT (5/11) 11:55 AM MDT (5/11)
Length of Visible Light 15h 40m
Length of Day
14h 35m
Waning Gibbous, 62% of the Moon is Illuminated
May 11
Waning Gibbous
May 12
Last Quarter
May 20
New
May 28
First Quarter
Jun 4
Full

Hourly Weather History & Observations

Time (MDT) Temp. Windchill Dew Point Humidity Pressure Visibility Wind Dir Wind Speed Gust Speed Precip Events Conditions
12:15 AM 42.8 °F 38.6 °F 19.4 °F 39% 30.04 in 10.0 mi NNW 6.9 mph - N/A   Clear
12:35 AM 42.8 °F 38.6 °F 19.4 °F 39% 30.05 in 10.0 mi NNW 6.9 mph - N/A   Clear
12:55 AM 42.8 °F 36.6 °F 19.4 °F 39% 30.06 in 10.0 mi WNW 11.5 mph - N/A   Clear
1:15 AM 44.6 °F 40.2 °F 21.2 °F 39% 30.06 in 10.0 mi NW 8.1 mph - N/A   Clear
1:35 AM 42.8 °F 38.6 °F 19.4 °F 39% 30.06 in 10.0 mi WNW 6.9 mph - N/A   Clear
1:55 AM 41.0 °F 39.0 °F 19.4 °F 42% 30.07 in 10.0 mi NW 3.5 mph - N/A   Clear
2:15 AM 41.0 °F 38.0 °F 19.4 °F 42% 30.07 in 10.0 mi NW 4.6 mph - N/A   Clear
2:35 AM 41.0 °F 37.1 °F 19.4 °F 42% 30.07 in 10.0 mi NW 5.8 mph - N/A   Clear
2:55 AM 39.2 °F 35.9 °F 21.2 °F 49% 30.08 in 10.0 mi NW 4.6 mph - N/A   Clear
3:15 AM 37.4 °F 32.1 °F 21.2 °F 52% 30.09 in 10.0 mi NW 6.9 mph - N/A   Clear
3:35 AM 37.4 °F 32.8 °F 21.2 °F 52% 30.09 in 10.0 mi NW 5.8 mph - N/A   Clear
3:55 AM 37.4 °F 31.4 °F 21.2 °F 52% 30.10 in 10.0 mi NW 8.1 mph - N/A   Clear
4:15 AM 37.4 °F 34.9 °F 21.2 °F 52% 30.10 in 10.0 mi NW 3.5 mph - N/A   Clear
4:35 AM 37.4 °F 32.1 °F 21.2 °F 52% 30.10 in 10.0 mi NW 6.9 mph - N/A   Clear
4:55 AM 35.6 °F 28.6 °F 21.2 °F 56% 30.11 in 10.0 mi NNW 9.2 mph - N/A   Clear
5:15 AM 35.6 °F 31.7 °F 21.2 °F 56% 30.12 in 10.0 mi NW 4.6 mph - N/A   Clear
5:35 AM 35.6 °F 30.7 °F 21.2 °F 56% 30.12 in 10.0 mi NW 5.8 mph - N/A   Clear
5:55 AM 35.6 °F 29.9 °F 21.2 °F 56% 30.13 in 10.0 mi NW 6.9 mph - N/A   Clear
6:15 AM 33.8 °F 28.6 °F 21.2 °F 60% 30.13 in 10.0 mi WNW 5.8 mph - N/A   Clear
6:35 AM 33.8 °F 28.6 °F 21.2 °F 60% 30.14 in 10.0 mi WNW 5.8 mph - N/A   Clear
6:47 AM 33.8 °F 25.8 °F 19.4 °F 56% 30.15 in 10.0 mi West 10.4 mph - N/A   Clear
6:55 AM 33.8 °F 27.7 °F 21.2 °F 60% 30.15 in 10.0 mi WNW 6.9 mph - N/A   Clear
7:47 AM 35.6 °F 30.7 °F 21.2 °F 56% 30.17 in 10.0 mi WNW 5.8 mph - N/A   Clear
9:47 AM 46.4 °F 42.9 °F 21.2 °F 37% 30.19 in 10.0 mi ESE 6.9 mph - N/A   Clear
10:47 AM 50.0 °F - 23.0 °F 35% 30.19 in 10.0 mi ESE 9.2 mph - N/A   Clear
11:47 AM 51.8 °F - 24.8 °F 35% 30.19 in 10.0 mi SE 9.2 mph - N/A   Clear
12:47 PM 53.6 °F - 24.8 °F 33% 30.19 in 10.0 mi ESE 8.1 mph - N/A   Clear
1:47 PM 55.4 °F - 23.0 °F 29% 30.18 in 10.0 mi ESE 8.1 mph - N/A   Clear
2:47 PM 57.2 °F - 23.0 °F 27% 30.16 in 10.0 mi ESE 8.1 mph - N/A   Partly Cloudy
3:55 PM 59.0 °F - 24.8 °F 27% 30.15 in 10.0 mi ESE 4.6 mph - N/A   Partly Cloudy
4:50 PM 60.8 °F - 24.8 °F 25% 30.13 in 10.0 mi ESE 8.1 mph - N/A   Partly Cloudy
5:50 PM 60.8 °F - 24.8 °F 25% 30.12 in 10.0 mi South 3.5 mph - N/A   Partly Cloudy
6:55 PM 60.8 °F - 26.6 °F 27% 30.11 in 10.0 mi SE 8.1 mph - N/A   Partly Cloudy
7:47 PM 57.2 °F - 28.4 °F 33% 30.12 in 10.0 mi Calm Calm - N/A   Clear
8:50 PM 51.8 °F - 30.2 °F 44% 30.13 in 10.0 mi Calm Calm - N/A   Clear
10:47 PM 48.2 °F - 30.2 °F 50% 30.17 in 10.0 mi Calm Calm - N/A   Clear
11:15 PM 44.6 °F 40.7 °F 32.0 °F 61% 30.18 in 10.0 mi WNW 6.9 mph - N/A   Clear
11:35 PM 44.6 °F 40.7 °F 32.0 °F 61% 30.19 in 10.0 mi WNW 6.9 mph - N/A   Clear
11:55 PM 42.8 °F 38.0 °F 32.0 °F 66% 30.19 in 10.0 mi WNW 8.1 mph - N/A   Clear